Total_Precipitation_Accumulation
0.11 0.13 0.19 0.25 0.34 0.45 0.49 0.57 0.64 0.75 0.87 0.97 1.11 1.07 1.02 1.05 1.08 1.04 1.02 1.00 1.06 1.06 0.98 0.92 0.94 0.95 0.90 0.84 0.80 0.78 0.77 0.73 0.67 0.72 0.77 0.72 0.59 0.52 0.47 0.45 0.42 0.38 0.35
0.10 0.13 0.20 0.25 0.32 0.45 0.50 0.57 0.67 0.76 0.83 0.90 0.99 1.06 1.03 1.06 1.11 1.08 1.06 1.03 1.01 1.05 1.07 0.98 0.91 0.87 0.87 0.88 0.83 0.82 0.81 0.82 0.77 0.75 0.82 0.83 0.81 0.64 0.48 0.43 0.44 0.42 0.41
0.14 0.14 0.23 0.30 0.34 0.43 0.51 0.56 0.67 0.76 0.82 0.97 1.07 1.15 1.25 1.25 1.27 1.27 1.15 1.06 1.02 0.99 1.01 1.02 0.98 0.91 0.85 0.86 0.84 0.80 0.78 0.79 0.76 0.68 0.81 0.89 0.78 0.62 0.52 0.44 0.39 0.38 0.41
0.14 0.16 0.21 0.31 0.35 0.40 0.51 0.59 0.70 0.77 0.81 1.00 1.15 1.12 1.19 1.18 1.12 1.08 1.11 1.08 1.04 1.00 0.96 0.97 0.97 0.99 0.93 0.83 0.79 0.80 0.80 0.82 0.83 0.73 0.65 0.68 0.68 0.71 0.61 0.51 0.46 0.42 0.41
0.13 0.13 0.15 0.21 0.30 0.37 0.48 0.59 0.73 0.83 0.85 0.93 1.12 1.16 1.10 1.06 1.06 1.10 1.09 1.12 1.12 1.07 0.98 0.94 0.94 0.94 0.92 0.84 0.78 0.79 0.82 0.84 0.84 0.80 0.70 0.64 0.56 0.56 0.66 0.56 0.48 0.52 0.49
0.12 0.12 0.11 0.13 0.26 0.37 0.47 0.56 0.68 0.82 0.88 0.88 1.00 1.16 1.11 1.06 1.05 1.09 1.13 1.13 1.16 1.13 1.03 0.93 0.89 0.85 0.82 0.81 0.76 0.71 0.72 0.76 0.76 0.73 0.72 0.73 0.70 0.60 0.62 0.60 0.47 0.46 0.48
0.14 0.14 0.12 0.13 0.21 0.32 0.43 0.53 0.63 0.72 0.80 0.83 0.88 0.98 1.10 1.07 0.99 0.95 1.00 1.08 1.15 1.11 1.03 0.97 0.88 0.82 0.78 0.78 0.77 0.73 0.67 0.68 0.72 0.71 0.67 0.65 0.62 0.57 0.62 0.71 0.63 0.53 0.48
0.10 0.11 0.13 0.15 0.19 0.23 0.30 0.44 0.54 0.67 0.80 0.84 0.84 0.89 0.99 1.10 1.02 0.94 0.92 0.97 1.02 0.99 0.91 0.92 0.89 0.81 0.76 0.78 0.80 0.80 0.73 0.69 0.70 0.68 0.66 0.66 0.61 0.62 0.69 0.80 0.87 0.81 0.60
0.09 0.10 0.12 0.15 0.17 0.22 0.25 0.36 0.45 0.60 0.78 0.89 0.88 0.88 0.93 1.02 1.04 0.95 0.91 0.93 0.93 0.93 0.92 0.91 0.91 0.86 0.85 0.85 0.85 0.85 0.80 0.75 0.73 0.72 0.71 0.72 0.68 0.67 0.69 0.74 0.87 1.08 0.97
0.11 0.11 0.12 0.15 0.17 0.20 0.23 0.31 0.40 0.48 0.60 0.79 0.93 0.93 0.90 0.91 0.99 1.01 0.97 0.92 0.92 0.92 0.92 0.97 0.98 0.93 0.89 0.92 0.95 0.90 0.84 0.84 0.80 0.80 0.81 0.76 0.72 0.74 0.78 0.82 0.82 0.89 1.02
0.11 0.11 0.13 0.16 0.18 0.21 0.26 0.32 0.39 0.45 0.51 0.62 0.78 0.90 0.91 0.95 1.00 1.04 0.99 0.98 0.95 0.94 0.90 0.90 0.98 1.01 0.94 0.88 0.95 0.97 0.94 0.92 0.86 0.83 0.85 0.81 0.77 0.85 0.89 0.93 0.93 0.88 0.91
0.10 0.10 0.11 0.16 0.20 0.24 0.29 0.35 0.43 0.45 0.47 0.55 0.66 0.78 0.89 0.94 1.00 0.99 1.01 1.06 1.05 0.97 0.89 0.86 0.93 1.00 0.99 0.91 0.90 0.93 0.93 0.95 0.92 0.88 0.89 0.88 0.85 0.88 0.92 1.00 0.99 0.91 0.86
0.09 0.10 0.12 0.16 0.22 0.26 0.29 0.37 0.44 0.44 0.45 0.55 0.64 0.74 0.86 0.89 0.93 0.90 0.93 1.09 1.20 1.14 1.00 0.91 0.94 1.02 1.07 1.01 0.92 0.93 0.93 0.90 0.87 0.85 0.90 0.93 0.94 0.89 0.89 0.99 1.04 0.98 0.93
0.09 0.11 0.14 0.17 0.20 0.23 0.27 0.33 0.41 0.47 0.49 0.52 0.62 0.71 0.80 0.82 0.82 0.82 0.83 0.96 1.13 1.21 1.13 1.01 0.96 1.02 1.14 1.18 1.14 1.13 1.05 0.96 0.85 0.77 0.79 0.89 1.02 1.03 1.04 1.09 1.07 1.09 1.14
0.10 0.11 0.14 0.17 0.22 0.26 0.28 0.31 0.37 0.47 0.54 0.52 0.60 0.63 0.69 0.78 0.78 0.76 0.80 0.89 1.02 1.10 1.12 1.09 1.02 1.03 1.24 1.47 1.63 1.51 1.22 1.02 0.91 0.76 0.71 0.81 1.05 1.24 1.41 1.47 1.35 1.36 1.49
0.11 0.12 0.13 0.17 0.23 0.28 0.32 0.35 0.39 0.44 0.52 0.53 0.57 0.59 0.67 0.77 0.81 0.75 0.78 0.89 1.00 1.05 1.06 1.05 1.03 1.02 1.21 1.57 1.80 1.48 1.13 0.99 0.92 0.85 0.75 0.79 1.03 1.18 1.31 1.45 1.44 1.48 1.67
0.13 0.13 0.16 0.20 0.24 0.29 0.31 0.37 0.39 0.43 0.50 0.53 0.54 0.59 0.68 0.72 0.79 0.79 0.81 0.91 1.01 1.03 1.03 0.99 0.98 0.95 1.02 1.36 1.60 1.37 1.06 0.95 0.90 0.86 0.81 0.83 0.93 1.05 1.08 1.18 1.23 1.26 1.44
0.18 0.17 0.19 0.22 0.22 0.26 0.26 0.31 0.37 0.47 0.53 0.54 0.51 0.57 0.65 0.68 0.77 0.82 0.84 0.94 1.03 1.00 1.00 0.99 0.96 0.91 0.95 1.24 1.49 1.32 1.06 0.97 0.91 0.91 0.85 0.78 0.82 0.95 1.10 1.18 1.15 1.08 1.15
0.22 0.21 0.21 0.21 0.21 0.24 0.25 0.25 0.31 0.43 0.53 0.57 0.51 0.53 0.62 0.67 0.74 0.80 0.87 0.94 1.02 0.99 0.96 0.94 0.96 0.91 0.89 1.14 1.51 1.40 1.09 1.01 0.95 0.94 0.89 0.79 0.75 0.93 1.10 1.08 1.06 0.99 1.03
0.21 0.21 0.20 0.19 0.21 0.24 0.25 0.23 0.27 0.35 0.47 0.55 0.48 0.50 0.56 0.60 0.68 0.75 0.85 0.92 0.93 0.92 0.93 0.89 0.89 0.88 0.83 0.99 1.40 1.53 1.14 1.04 0.97 0.96 0.92 0.98 0.96 1.05 1.07 0.98 1.04 1.13 1.02
0.21 0.19 0.19 0.20 0.23 0.25 0.25 0.25 0.28 0.31 0.40 0.51 0.48 0.51 0.54 0.57 0.64 0.73 0.77 0.84 0.88 0.86 0.91 0.90 0.87 0.86 0.84 0.89 1.16 1.50 1.25 1.08 0.98 0.98 0.98 0.93 1.07 1.09 1.06 1.03 1.01 1.17 1.11
0.21 0.20 0.19 0.20 0.20 0.22 0.26 0.27 0.31 0.32 0.38 0.47 0.49 0.54 0.59 0.61 0.64 0.70 0.68 0.71 0.82 0.85 0.88 0.92 0.95 0.92 0.87 0.90 1.11 1.32 1.29 1.17 0.99 0.96 0.89 0.87 1.03 1.08 1.11 1.07 1.11 1.16 1.16
0.23 0.22 0.22 0.20 0.19 0.21 0.26 0.31 0.36 0.36 0.41 0.46 0.49 0.55 0.63 0.66 0.67 0.65 0.66 0.70 0.76 0.84 0.88 0.90 0.91 0.93 0.90 0.94 1.13 1.14 1.17 1.17 1.07 1.05 1.09 1.05 1.13 1.17 1.09 1.05 1.09 1.06 1.01
0.26 0.25 0.25 0.23 0.22 0.22 0.25 0.33 0.39 0.38 0.42 0.46 0.47 0.53 0.58 0.65 0.68 0.64 0.61 0.63 0.72 0.83 0.84 0.85 0.83 0.83 0.86 1.00 1.12 1.04 1.04 1.12 1.17 1.19 1.18 1.20 1.21 1.18 1.12 1.05 0.95 0.88 0.90
0.28 0.27 0.27 0.26 0.25 0.24 0.28 0.34 0.38 0.39 0.43 0.43 0.43 0.47 0.50 0.61 0.71 0.70 0.64 0.63 0.64 0.79 0.88 0.83 0.81 0.85 0.96 1.11 1.20 1.11 1.08 1.13 1.21 1.29 1.33 1.28 1.23 1.22 1.11 0.96 0.85 0.81 0.86
0.31 0.29 0.29 0.28 0.28 0.29 0.33 0.38 0.40 0.40 0.41 0.42 0.42 0.44 0.47 0.55 0.65 0.69 0.71 0.77 0.75 0.78 0.77 0.76 0.81 0.81 0.95 1.07 1.07 1.08 1.11 1.19 1.27 1.32 1.31 1.15 1.00 0.96 0.92 0.86 0.80 0.77 0.77